This is the latest recevied weather packets stored in our database for station/object KB1RMA-13. If no packets are shown the sender has not sent any weather packets the latest 1 day(s).
| Time | Temp. | Humidity | Pressure | Rain* | Wind** | Luminosity | Snow |
|---|---|---|---|---|---|---|---|
| 1778037027 | 18.89° C | 61% | 1008.5 hPa | 0 mm | 4.47 m/s, 231° | 0 W/m² | - |
| 1778036725 | 18.33° C | 62% | 1008.4 hPa | 0 mm | 2.24 m/s, 222° | 0 W/m² | - |
| 1778036422 | 18.33° C | 62% | 1008.6 hPa | 0 mm | 3.58 m/s, 217° | 0 W/m² | - |
| 1778036119 | 18.33° C | 63% | 1008.5 hPa | 0 mm | 2.24 m/s, 215° | 0 W/m² | - |
| 1778035815 | 18.33° C | 62% | 1008.3 hPa | 0 mm | 2.24 m/s, 205° | 0 W/m² | - |
| 1778035512 | 18.89° C | 62% | 1008.4 hPa | 0 mm | 3.13 m/s, 191° | 0 W/m² | - |
| 1778035208 | 18.89° C | 62% | 1008.6 hPa | 0 mm | 4.02 m/s, 211° | 0 W/m² | - |
| 1778034904 | 18.89° C | 62% | 1008.5 hPa | 0 mm | 4.47 m/s, 241° | 0 W/m² | - |
| 1778034602 | 18.89° C | 62% | 1008.2 hPa | 0 mm | 3.58 m/s, 219° | 0 W/m² | - |
| 1778034299 | 18.89° C | 62% | 1008.7 hPa | 0 mm | 3.13 m/s, 204° | 0 W/m² | - |
| 1778033997 | 18.89° C | 62% | 1008.4 hPa | 0 mm | 4.47 m/s, 216° | 0 W/m² | - |
| 1778033694 | 18.89° C | 62% | 1008.7 hPa | 0 mm | 3.58 m/s, 234° | 0 W/m² | - |
| 1778033391 | 18.89° C | 62% | 1008.6 hPa | 0 mm | 1.79 m/s, 228° | 0 W/m² | - |
| 1778033089 | 18.89° C | 61% | 1008.6 hPa | 0 mm | 2.24 m/s, 238° | 0 W/m² | - |
| 1778032785 | 19.44° C | 61% | 1008.8 hPa | 0 mm | 7.15 m/s, 228° | 0 W/m² | - |
| 1778032483 | 18.89° C | 61% | 1008.8 hPa | 0 mm | 2.24 m/s, 233° | 0 W/m² | - |
| 1778032180 | 18.89° C | 61% | 1008.6 hPa | 0 mm | 4.02 m/s, 255° | 0 W/m² | - |
| 1778031877 | 19.44° C | 61% | 1008.8 hPa | 0 mm | 3.13 m/s, 255° | 0 W/m² | - |
| 1778031573 | 19.44° C | 61% | 1008.5 hPa | 0 mm | 3.13 m/s, 286° | 0 W/m² | - |
| 1778031271 | 19.44° C | 60% | 1008.2 hPa | 0 mm | 4.02 m/s, 204° | 0 W/m² | - |
| 1778030967 | 19.44° C | 60% | 1007.9 hPa | 0 mm | 4.02 m/s, 214° | 0 W/m² | - |
| 1778030664 | 19.44° C | 59% | 1007.9 hPa | 0 mm | 5.81 m/s, 226° | 0 W/m² | - |
| 1778030361 | 19.44° C | 59% | 1007.7 hPa | 0 mm | 7.6 m/s, 186° | 0 W/m² | - |
| 1778030058 | 20° C | 59% | 1007.5 hPa | 0 mm | 4.02 m/s, 213° | 0 W/m² | - |
| 1778029755 | 20° C | 58% | 1007.6 hPa | 0 mm | 4.47 m/s, 212° | 0 W/m² | - |
* Rain latest hour (hover to see other rain measurements)
** Current wind speed in m/s (hover to see current wind gust speed)